This is the latest recevied weather packets stored in our database for station/object F5IOR-13. If no packets are shown the sender has not sent any weather packets the latest 10 day(s).
| Time | Temp. | Humidity | Pressure | Rain* | Wind** | Luminosity | Snow |
|---|---|---|---|---|---|---|---|
| 1777714705 | 20° C | 42% | 992.2 hPa | 0 mm | - | - | - |
| 1777713745 | 18.89° C | 48% | 992.3 hPa | 0 mm | - | - | - |
| 1777712785 | 18.33° C | 50% | 992.4 hPa | 0 mm | - | - | - |
| 1777711825 | 17.78° C | 52% | 992.4 hPa | 0 mm | - | - | - |
| 1777710865 | 16.67° C | 57% | 992.4 hPa | 0 mm | - | - | - |
| 1777710385 | 16.67° C | 57% | 992.4 hPa | 0 mm | - | - | - |
| 1777709905 | 16.67° C | 57% | 992.4 hPa | 0 mm | - | - | - |
| 1777709425 | 16.67° C | 57% | 992.4 hPa | 0 mm | - | - | - |
| 1777708945 | 16.67° C | 57% | 992.4 hPa | 0 mm | - | - | - |
| 1777708705 | 16.11° C | 56% | 992.5 hPa | 0 mm | - | - | - |
| 1777708466 | 16.11° C | 56% | 992.5 hPa | 0 mm | - | - | - |
| 1777708225 | 16.11° C | 56% | 992.5 hPa | 0 mm | - | - | - |
| 1777707985 | 16.11° C | 56% | 992.5 hPa | 0 mm | - | - | - |
| 1777707865 | 16.11° C | 56% | 992.5 hPa | 0 mm | - | - | - |
| 1777707745 | 16.11° C | 56% | 992.5 hPa | 0 mm | - | - | - |
| 1777707625 | 16.11° C | 56% | 992.5 hPa | 0 mm | - | - | - |
| 1777707505 | 16.11° C | 56% | 992.5 hPa | 0 mm | - | - | - |
| 1777707445 | 16.11° C | 56% | 992.5 hPa | 0 mm | - | - | - |
| 1777707385 | 16.11° C | 56% | 992.5 hPa | 0 mm | - | - | - |
| 1777707325 | 16.11° C | 56% | 992.5 hPa | 0 mm | - | - | - |
| 1777662509 | 19.44° C | 66% | 992 hPa | 0 mm | - | - | - |
| 1777660709 | 21.11° C | 60% | 991.7 hPa | 0 mm | - | - | - |
| 1777658909 | 21.67° C | 56% | 991.6 hPa | 0 mm | - | - | - |
| 1777657109 | 22.22° C | 53% | 991.7 hPa | 0 mm | - | - | - |
| 1777655310 | 22.78° C | 50% | 991.9 hPa | 0 mm | - | - | - |
* Rain latest hour (hover to see other rain measurements)
** Current wind speed in m/s (hover to see current wind gust speed)